Time,TemperatureF,DewpointF,PressureIn,WindDirection,WindDirectionDegrees,WindSpeedMPH,WindSpeedGustMPH,Humidity,HourlyPrecipIn,Conditions,Clouds,dailyrainin,SoftwareType,DateUTC
2013-12-18 00:13:00,19.0,16.0,29.98,East,89,0.0,1.0,89,0.00,,,0.00,weatherlink.com 1.10,2013-12-18 05:13:00,
2013-12-18 00:28:00,18.9,16.0,29.97,ENE,68,2.0,2.0,88,0.00,,,0.00,weatherlink.com 1.10,2013-12-18 05:28:00,
2013-12-18 00:43:00,19.2,17.0,29.97,East,84,0.0,3.0,89,0.00,,,0.00,weatherlink.com 1.10,2013-12-18 05:43:00,
2013-12-18 00:58:00,19.3,16.0,29.98,ENE,75,0.0,1.0,88,0.00,,,0.00,weatherlink.com 1.10,2013-12-18 05:58:00,
2013-12-18 01:13:00,19.1,16.0,29.98,ENE,77,0.0,1.0,89,0.00,,,0.00,weatherlink.com 1.10,2013-12-18 06:13:00,
2013-12-18 01:28:00,19.0,16.0,29.99,East,82,0.0,1.0,89,0.00,,,0.00,weatherlink.com 1.10,2013-12-18 06:28:00,
2013-12-18 01:43:00,18.9,16.0,29.99,ENE,70,0.0,2.0,89,0.00,,,0.00,weatherlink.com 1.10,2013-12-18 06:43:00,
2013-12-18 01:58:00,19.2,17.0,30.00,ENE,67,0.0,1.0,90,0.00,,,0.00,weatherlink.com 1.10,2013-12-18 06:58:00,
2013-12-18 02:13:00,19.5,17.0,30.00,ENE,68,0.0,2.0,90,0.00,,,0.00,weatherlink.com 1.10,2013-12-18 07:13:00,
2013-12-18 02:28:00,19.8,17.0,30.01,ENE,65,0.0,1.0,90,0.00,,,0.00,weatherlink.com 1.10,2013-12-18 07:28:00,
2013-12-18 02:44:00,20.1,18.0,30.02,ENE,63,0.0,1.0,90,0.00,,,0.00,weatherlink.com 1.10,2013-12-18 07:44:00,
2013-12-18 02:59:00,20.3,18.0,30.02,ENE,72,0.0,1.0,90,0.00,,,0.00,weatherlink.com 1.10,2013-12-18 07:59:00,
2013-12-18 03:14:00,20.4,18.0,30.02,ENE,70,0.0,1.0,89,0.00,,,0.00,weatherlink.com 1.10,2013-12-18 08:14:00,
2013-12-18 03:29:00,20.5,18.0,30.01,East,84,0.0,1.0,89,0.00,,,0.00,weatherlink.com 1.10,2013-12-18 08:29:00,
2013-12-18 03:44:00,20.6,18.0,30.00,East,82,0.0,1.0,89,0.00,,,0.00,weatherlink.com 1.10,2013-12-18 08:44:00,
2013-12-18 03:59:00,20.9,19.0,30.00,East,82,0.0,0.0,90,0.00,,,0.00,weatherlink.com 1.10,2013-12-18 08:59:00,
2013-12-18 04:14:00,21.2,19.0,30.00,East,82,0.0,0.0,89,0.00,,,0.00,weatherlink.com 1.10,2013-12-18 09:14:00,
2013-12-18 04:29:00,21.3,19.0,30.01,East,82,0.0,1.0,89,0.00,,,0.00,weatherlink.com 1.10,2013-12-18 09:29:00,
2013-12-18 04:44:00,20.9,18.0,30.01,East,82,0.0,1.0,88,0.00,,,0.00,weatherlink.com 1.10,2013-12-18 09:44:00,
2013-12-18 04:59:00,20.5,18.0,30.02,East,82,0.0,1.0,88,0.00,,,0.00,weatherlink.com 1.10,2013-12-18 09:59:00,
2013-12-18 05:14:00,20.0,17.0,30.02,East,82,0.0,1.0,88,0.00,,,0.00,weatherlink.com 1.10,2013-12-18 10:14:00,
2013-12-18 05:29:00,19.4,16.0,30.03,East,82,0.0,0.0,87,0.00,,,0.00,weatherlink.com 1.10,2013-12-18 10:29:00,
2013-12-18 05:44:00,18.5,16.0,30.03,East,82,0.0,1.0,88,0.00,,,0.00,weatherlink.com 1.10,2013-12-18 10:44:00,
2013-12-18 05:59:00,18.7,16.0,30.04,East,82,0.0,1.0,89,0.00,,,0.00,weatherlink.com 1.10,2013-12-18 10:59:00,
2013-12-18 06:14:00,18.1,15.0,30.04,East,82,0.0,0.0,89,0.00,,,0.00,weatherlink.com 1.10,2013-12-18 11:14:00,
2013-12-18 06:29:00,17.8,15.0,30.05,East,82,0.0,0.0,89,0.00,,,0.00,weatherlink.com 1.10,2013-12-18 11:29:00,
2013-12-18 06:44:00,17.7,15.0,30.05,East,82,0.0,0.0,90,0.00,,,0.00,weatherlink.com 1.10,2013-12-18 11:44:00,
2013-12-18 06:59:00,17.8,16.0,30.06,East,82,0.0,0.0,91,0.00,,,0.00,weatherlink.com 1.10,2013-12-18 11:59:00,
2013-12-18 07:14:00,18.9,16.0,30.06,East,82,0.0,1.0,89,0.00,,,0.00,weatherlink.com 1.10,2013-12-18 12:14:00,
2013-12-18 07:29:00,19.0,16.0,30.06,East,81,0.0,1.0,88,0.00,,,0.00,weatherlink.com 1.10,2013-12-18 12:29:00,
2013-12-18 07:44:00,18.4,16.0,30.07,East,80,0.0,0.0,88,0.00,,,0.00,weatherlink.com 1.10,2013-12-18 12:44:00,
2013-12-18 07:59:00,18.4,16.0,30.07,East,80,0.0,0.0,90,0.00,,,0.00,weatherlink.com 1.10,2013-12-18 12:59:00,
2013-12-18 08:14:00,19.0,17.0,30.08,East,81,0.0,0.0,90,0.00,,,0.00,weatherlink.com 1.10,2013-12-18 13:14:00,
2013-12-18 08:29:00,19.8,17.0,30.09,ENE,78,0.0,1.0,89,0.00,,,0.00,weatherlink.com 1.10,2013-12-18 13:29:00,
2013-12-18 08:44:00,20.6,18.0,30.09,ENE,77,0.0,1.0,88,0.00,,,0.00,weatherlink.com 1.10,2013-12-18 13:44:00,
2013-12-18 08:59:00,21.5,18.0,30.10,ENE,78,0.0,1.0,87,0.00,,,0.00,weatherlink.com 1.10,2013-12-18 13:59:00,
2013-12-18 09:14:00,22.9,19.0,30.10,ENE,68,0.0,1.0,86,0.00,,,0.00,weatherlink.com 1.10,2013-12-18 14:14:00,
2013-12-18 09:29:00,24.6,20.0,30.10,ENE,70,0.0,2.0,82,0.00,,,0.00,weatherlink.com 1.10,2013-12-18 14:29:00,
2013-12-18 09:44:00,25.4,20.0,30.11,ENE,72,0.0,2.0,81,0.00,,,0.00,weatherlink.com 1.10,2013-12-18 14:44:00,
2013-12-18 09:59:00,26.6,21.0,30.11,ENE,63,0.0,3.0,79,0.00,,,0.00,weatherlink.com 1.10,2013-12-18 14:59:00,
2013-12-18 10:14:00,27.6,22.0,30.11,ENE,72,0.0,3.0,78,0.00,,,0.00,weatherlink.com 1.10,2013-12-18 15:14:00,
2013-12-18 10:30:00,28.6,22.0,30.11,ENE,76,0.0,4.0,77,0.00,,,0.00,weatherlink.com 1.10,2013-12-18 15:30:00,
2013-12-18 10:45:00,29.5,23.0,30.10,ENE,77,0.0,5.0,75,0.00,,,0.00,weatherlink.com 1.10,2013-12-18 15:45:00,
2013-12-18 11:00:00,30.5,23.0,30.09,ENE,59,3.0,5.0,73,0.00,,,0.00,weatherlink.com 1.10,2013-12-18 16:00:00,
2013-12-18 11:15:00,31.2,22.0,30.09,ENE,62,3.0,4.0,70,0.00,,,0.00,weatherlink.com 1.10,2013-12-18 16:15:00,
2013-12-18 11:30:00,31.8,23.0,30.09,NNE,32,2.0,4.0,69,0.00,,,0.00,weatherlink.com 1.10,2013-12-18 16:30:00,
2013-12-18 11:45:00,32.1,23.0,30.09,ENE,70,5.0,6.0,68,0.00,,,0.00,weatherlink.com 1.10,2013-12-18 16:45:00,
2013-12-18 12:00:00,32.5,23.0,30.09,ENE,73,1.0,4.0,68,0.00,,,0.00,weatherlink.com 1.10,2013-12-18 17:00:00,
2013-12-18 12:15:00,33.0,22.0,30.09,East,86,1.0,5.0,65,0.00,,,0.00,weatherlink.com 1.10,2013-12-18 17:15:00,
2013-12-18 12:30:00,33.1,22.0,30.09,NE,56,2.0,4.0,65,0.00,,,0.00,weatherlink.com 1.10,2013-12-18 17:30:00,
2013-12-18 12:45:00,33.2,22.0,30.08,ENE,71,1.0,3.0,64,0.00,,,0.00,weatherlink.com 1.10,2013-12-18 17:45:00,
2013-12-18 13:00:00,33.6,22.0,30.08,ENE,68,2.0,4.0,62,0.01,,,0.01,weatherlink.com 1.10,2013-12-18 18:00:00,
2013-12-18 13:15:00,33.8,23.0,30.08,ENE,72,1.0,6.0,64,0.01,,,0.01,weatherlink.com 1.10,2013-12-18 18:15:00,
2013-12-18 13:30:00,34.3,22.0,30.09,ENE,73,1.0,5.0,62,0.02,,,0.02,weatherlink.com 1.10,2013-12-18 18:30:00,
2013-12-18 13:45:00,34.1,21.0,30.08,East,85,0.0,8.0,59,0.04,,,0.04,weatherlink.com 1.10,2013-12-18 18:45:00,
2013-12-18 14:00:00,34.2,21.0,30.09,ENE,72,3.0,6.0,59,0.04,,,0.05,weatherlink.com 1.10,2013-12-18 19:00:00,
2013-12-18 14:15:00,34.0,20.0,30.10,East,79,2.0,5.0,58,0.04,,,0.06,weatherlink.com 1.10,2013-12-18 19:15:00,
2013-12-18 14:30:00,33.1,20.0,30.10,NE,47,4.0,8.0,59,0.04,,,0.07,weatherlink.com 1.10,2013-12-18 19:30:00,
2013-12-18 14:45:00,32.2,20.0,30.10,East,87,1.0,4.0,61,0.03,,,0.07,weatherlink.com 1.10,2013-12-18 19:45:00,
2013-12-18 15:00:00,32.0,20.0,30.11,ENE,68,0.0,5.0,61,0.02,,,0.07,weatherlink.com 1.10,2013-12-18 20:00:00,
2013-12-18 15:15:00,31.9,20.0,30.12,ENE,67,1.0,4.0,63,0.01,,,0.07,weatherlink.com 1.10,2013-12-18 20:15:00,
2013-12-18 15:30:00,32.0,20.0,30.12,ENE,67,1.0,4.0,62,0.00,,,0.07,weatherlink.com 1.10,2013-12-18 20:30:00,
2013-12-18 15:45:00,31.4,20.0,30.13,ENE,70,1.0,5.0,64,0.00,,,0.07,weatherlink.com 1.10,2013-12-18 20:45:00,
2013-12-18 16:00:00,30.9,20.0,30.14,ENE,70,0.0,2.0,65,0.00,,,0.07,weatherlink.com 1.10,2013-12-18 21:00:00,
2013-12-18 16:15:00,30.6,20.0,30.15,ENE,70,0.0,2.0,65,0.00,,,0.07,weatherlink.com 1.10,2013-12-18 21:15:00,
2013-12-18 16:30:00,30.5,21.0,30.15,ENE,72,0.0,1.0,67,0.00,,,0.07,weatherlink.com 1.10,2013-12-18 21:30:00,
2013-12-18 16:45:00,30.2,20.0,30.15,ENE,72,0.0,2.0,67,0.00,,,0.07,weatherlink.com 1.10,2013-12-18 21:45:00,
2013-12-18 17:00:00,30.2,21.0,30.16,ENE,70,0.0,2.0,68,0.00,,,0.07,weatherlink.com 1.10,2013-12-18 22:00:00,
2013-12-18 17:15:00,29.6,21.0,30.16,ENE,70,0.0,1.0,69,0.00,,,0.07,weatherlink.com 1.10,2013-12-18 22:15:00,
2013-12-18 17:31:00,28.7,20.0,30.16,ENE,70,0.0,0.0,71,0.00,,,0.07,weatherlink.com 1.10,2013-12-18 22:31:00,
2013-12-18 17:46:00,28.5,20.0,30.16,ENE,70,0.0,1.0,70,0.00,,,0.07,weatherlink.com 1.10,2013-12-18 22:46:00,
2013-12-18 18:01:00,28.6,20.0,30.17,ENE,75,0.0,1.0,70,0.00,,,0.07,weatherlink.com 1.10,2013-12-18 23:01:00,
2013-12-18 18:16:00,27.6,20.0,30.18,ENE,75,0.0,0.0,72,0.00,,,0.07,weatherlink.com 1.10,2013-12-18 23:16:00,
2013-12-18 18:31:00,27.0,20.0,30.18,ENE,75,0.0,1.0,74,0.00,,,0.07,weatherlink.com 1.10,2013-12-18 23:31:00,
2013-12-18 18:46:00,26.3,19.0,30.18,ENE,75,0.0,0.0,75,0.00,,,0.07,weatherlink.com 1.10,2013-12-18 23:46:00,
2013-12-18 19:01:00,26.1,19.0,30.19,ENE,75,0.0,0.0,75,0.00,,,0.07,weatherlink.com 1.10,2013-12-19 00:01:00,
2013-12-18 19:16:00,25.4,19.0,30.19,ENE,75,0.0,0.0,77,0.00,,,0.07,weatherlink.com 1.10,2013-12-19 00:16:00,
2013-12-18 19:31:00,25.3,19.0,30.20,ESE,103,0.0,1.0,77,0.00,,,0.07,weatherlink.com 1.10,2013-12-19 00:31:00,
2013-12-18 19:46:00,25.1,19.0,30.20,ESE,104,0.0,0.0,78,0.00,,,0.07,weatherlink.com 1.10,2013-12-19 00:46:00,
2013-12-18 20:01:00,25.8,19.0,30.21,East,99,0.0,1.0,76,0.00,,,0.07,weatherlink.com 1.10,2013-12-19 01:01:00,
2013-12-18 20:16:00,26.2,19.0,30.21,East,99,0.0,1.0,74,0.00,,,0.07,weatherlink.com 1.10,2013-12-19 01:16:00,
2013-12-18 20:31:00,26.5,19.0,30.21,East,92,0.0,1.0,73,0.00,,,0.07,weatherlink.com 1.10,2013-12-19 01:31:00,
2013-12-18 20:46:00,26.7,19.0,30.21,ENE,75,0.0,1.0,72,0.00,,,0.07,weatherlink.com 1.10,2013-12-19 01:46:00,
2013-12-18 21:01:00,26.1,19.0,30.21,East,93,0.0,1.0,73,0.00,,,0.07,weatherlink.com 1.10,2013-12-19 02:01:00,
2013-12-18 21:16:00,25.8,18.0,30.20,NE,53,0.0,0.0,73,0.00,,,0.07,weatherlink.com 1.10,2013-12-19 02:16:00,
2013-12-18 21:31:00,24.9,18.0,30.20,NE,53,0.0,0.0,75,0.00,,,0.07,weatherlink.com 1.10,2013-12-19 02:31:00,
2013-12-18 21:46:00,24.9,18.0,30.21,ENE,65,0.0,1.0,75,0.00,,,0.07,weatherlink.com 1.10,2013-12-19 02:46:00,
2013-12-18 22:01:00,25.4,18.0,30.21,ENE,68,0.0,1.0,74,0.00,,,0.07,weatherlink.com 1.10,2013-12-19 03:01:00,
2013-12-18 22:16:00,25.4,18.0,30.21,ENE,71,0.0,1.0,74,0.00,,,0.07,weatherlink.com 1.10,2013-12-19 03:16:00,
2013-12-18 22:31:00,25.4,18.0,30.21,ENE,71,0.0,2.0,73,0.00,,,0.07,weatherlink.com 1.10,2013-12-19 03:31:00,
2013-12-18 22:46:00,25.2,18.0,30.21,ENE,70,0.0,1.0,74,0.00,,,0.07,weatherlink.com 1.10,2013-12-19 03:46:00,
2013-12-18 23:01:00,25.1,18.0,30.21,ENE,70,0.0,2.0,74,0.00,,,0.07,weatherlink.com 1.10,2013-12-19 04:01:00,
2013-12-18 23:16:00,24.9,18.0,30.21,ENE,67,0.0,2.0,74,0.00,,,0.07,weatherlink.com 1.10,2013-12-19 04:16:00,
2013-12-18 23:31:00,24.8,17.0,30.21,ENE,69,1.0,2.0,73,0.00,,,0.07,weatherlink.com 1.10,2013-12-19 04:31:00,
2013-12-18 23:46:00,25.0,17.0,30.22,NE,54,2.0,3.0,73,0.00,,,0.07,weatherlink.com 1.10,2013-12-19 04:46:00,